Weather History for Orr, MN

Change the Weather History Date:

Sunday, February 10, 2013

  Actual Average Record
Temperature  
Mean Temperature 25 °F -  
Max Temperature 26 °F 21 °F 42 °F (1999)
Min Temperature 24 °F 1 °F -27 °F (2011)
Degree Days  
Heating Degree Days 40    
Moisture  
Dew Point 22 °F    
Average Humidity 87    
Maximum Humidity 93    
Minimum Humidity 86    
Precipitation  
Precipitation 0.22 in - - ()
Sea Level Pressure  
Sea Level Pressure 29.67 in    
Wind  
Wind Speed 2 mph (ENE)    
Max Wind Speed 8 mph    
Max Gust Speed -    
Visibility 4 miles    
Events Snow    
Averages and records for this station are not official NWS values.
T = Trace of Precipitation, MM = Missing Value Source: NWS Daily Summary

Daily Weather History Graph

Daily Weather History Graph

Search for Another Location

Airport:

Trip Planner

Search our weather history database for the weather conditions in past years. The results will help you decide how hot, cold, wet, or windy it might be!

Date:

Astronomy

Feb. 10, 2013 Rise Set
Actual Time 7:25 AM CST 5:26 PM CST
Civil Twilight 6:53 AM CST 5:58 PM CST
Nautical Twilight 6:16 AM CST 6:35 PM CST
Astronomical Twilight 5:40 AM CST 7:11 PM CST
Moon 7:09 AM CST (2/10) 6:25 PM CST (2/10)
Length of Visible Light 11h 05m
Length of Day
10h 00m
New Moon, 0% of the Moon is Illuminated
Feb 10
New Moon
Feb 17
First Quarter
Feb 25
Full
Mar 4
Last Quarter
Mar 11
New

Hourly Weather History & Observations

Time (CST) Temp. Windchill Dew Point Humidity Pressure Visibility Wind Dir Wind Speed Gust Speed Precip Events Conditions
12:13 AM 24.8 °F - 23.0 °F 93% 29.91 in 5.0 mi Calm Calm - N/A   Scattered Clouds
12:33 AM 24.8 °F - 23.0 °F 93% 29.90 in 5.0 mi Calm Calm - N/A   Scattered Clouds
12:53 AM 24.8 °F - 23.0 °F 93% 29.90 in 5.0 mi Calm Calm - N/A   Mostly Cloudy
1:13 AM 24.8 °F - 23.0 °F 93% 29.89 in 5.0 mi Calm Calm - N/A   Mostly Cloudy
1:33 AM 24.8 °F - 21.2 °F 86% 29.89 in 5.0 mi Calm Calm - N/A   Mostly Cloudy
1:53 AM 24.8 °F - 21.2 °F 86% 29.89 in 5.0 mi Calm Calm - N/A   Overcast
2:14 AM 24.8 °F - 21.2 °F 86% 29.89 in 5.0 mi Calm Calm - N/A   Mostly Cloudy
2:33 AM 24.8 °F - 21.2 °F 86% 29.89 in 5.0 mi Calm Calm - N/A   Overcast
2:53 AM 24.8 °F - 21.2 °F 86% 29.88 in 5.0 mi Calm Calm - N/A   Mostly Cloudy
3:13 AM 24.8 °F - 21.2 °F 86% 29.88 in 5.0 mi Calm Calm - N/A   Mostly Cloudy
3:33 AM 24.8 °F 20.5 °F 21.2 °F 86% 29.86 in 5.0 mi East 3.5 mph - N/A   Mostly Cloudy
3:53 AM 24.8 °F - 21.2 °F 86% 29.85 in 5.0 mi Calm Calm - N/A   Overcast
4:13 AM 24.8 °F - 21.2 °F 86% 29.85 in 5.0 mi Calm Calm - N/A   Overcast
4:33 AM 24.8 °F - 21.2 °F 86% 29.85 in 5.0 mi Calm Calm - N/A   Mostly Cloudy
4:53 AM 24.8 °F 19.1 °F 21.2 °F 86% 29.85 in 5.0 mi ESE 4.6 mph - N/A   Mostly Cloudy
5:13 AM 24.8 °F 20.5 °F 21.2 °F 86% 29.85 in 5.0 mi ESE 3.5 mph - N/A   Mostly Cloudy
5:33 AM 24.8 °F - 21.2 °F 86% 29.84 in 5.0 mi Calm Calm - N/A   Mostly Cloudy
5:54 AM 24.8 °F 20.5 °F 21.2 °F 86% 29.82 in 5.0 mi East 3.5 mph - N/A   Mostly Cloudy
6:13 AM 24.8 °F 20.5 °F 21.2 °F 86% 29.83 in 5.0 mi East 3.5 mph - N/A   Mostly Cloudy
6:33 AM 24.8 °F 20.5 °F 21.2 °F 86% 29.82 in 5.0 mi East 3.5 mph - N/A   Mostly Cloudy
6:53 AM 24.8 °F - 21.2 °F 86% 29.82 in 5.0 mi Calm Calm - N/A   Mostly Cloudy
7:13 AM 24.8 °F 19.1 °F 21.2 °F 86% 29.81 in 3.0 mi East 4.6 mph - N/A Snow Light Snow
7:33 AM 24.8 °F 20.5 °F 21.2 °F 86% 29.81 in 2.5 mi East 3.5 mph - N/A   Overcast
7:53 AM 24.8 °F 20.5 °F 21.2 °F 86% 29.80 in 2.5 mi East 3.5 mph - N/A Snow Light Snow
8:13 AM 24.8 °F - 21.2 °F 86% 29.79 in 3.0 mi Calm Calm - N/A   Overcast
8:33 AM 24.8 °F 20.5 °F 21.2 °F 86% 29.79 in 7.0 mi East 3.5 mph - N/A   Overcast
8:54 AM 24.8 °F 19.1 °F 21.2 °F 86% 29.78 in 5.0 mi East 4.6 mph - N/A   Overcast
9:13 AM 24.8 °F - 21.2 °F 86% 29.77 in 5.0 mi Calm Calm - N/A   Overcast
9:33 AM 24.8 °F 20.5 °F 21.2 °F 86% 29.74 in 4.0 mi East 3.5 mph - N/A   Mostly Cloudy
9:53 AM 24.8 °F 20.5 °F 21.2 °F 86% 29.74 in 2.5 mi East 3.5 mph - N/A Snow Light Snow
10:13 AM 24.8 °F 19.1 °F 21.2 °F 86% 29.74 in 4.0 mi East 4.6 mph - N/A Snow Light Snow
10:33 AM 24.8 °F 16.9 °F 21.2 °F 86% 29.73 in 5.0 mi ENE 6.9 mph - N/A   Overcast
10:53 AM 24.8 °F 16.9 °F 21.2 °F 86% 29.73 in 4.0 mi East 6.9 mph - N/A   Overcast
11:13 AM 24.8 °F 19.1 °F 21.2 °F 86% 29.74 in 5.0 mi East 4.6 mph - N/A   Mostly Cloudy
11:33 AM 26.6 °F - 23.0 °F 86% 29.73 in 5.0 mi Calm Calm - N/A   Mostly Cloudy
11:53 AM 26.6 °F 22.6 °F 23.0 °F 86% 29.71 in 5.0 mi East 3.5 mph - N/A   Mostly Cloudy
12:13 PM 26.6 °F 22.6 °F 23.0 °F 86% 29.68 in 5.0 mi ENE 3.5 mph - N/A   Mostly Cloudy
12:33 PM 26.6 °F 22.6 °F 23.0 °F 86% 29.65 in 4.0 mi ENE 3.5 mph - N/A   Overcast
12:53 PM 26.6 °F 21.2 °F 23.0 °F 86% 29.64 in 4.0 mi East 4.6 mph - N/A   Overcast
1:13 PM 26.6 °F 22.6 °F 23.0 °F 86% 29.64 in 5.0 mi East 3.5 mph - N/A   Mostly Cloudy
1:33 PM 26.6 °F 20.0 °F 23.0 °F 86% 29.64 in 7.0 mi East 5.8 mph - N/A   Overcast
1:53 PM 26.6 °F 19.1 °F 23.0 °F 86% 29.62 in 7.0 mi East 6.9 mph - N/A   Overcast
2:13 PM 26.6 °F 21.2 °F 23.0 °F 86% 29.60 in 10.0 mi ENE 4.6 mph - N/A   Overcast
2:33 PM 26.6 °F 20.0 °F 23.0 °F 86% 29.59 in 10.0 mi ENE 5.8 mph - N/A   Overcast
2:53 PM 26.6 °F 22.6 °F 23.0 °F 86% 29.59 in 10.0 mi ENE 3.5 mph - N/A   Overcast
3:13 PM 26.6 °F 20.0 °F 23.0 °F 86% 29.58 in 10.0 mi East 5.8 mph - N/A   Overcast
3:33 PM 26.6 °F 20.0 °F 23.0 °F 86% 29.53 in 0.8 mi NNE 5.8 mph - N/A Snow Snow
3:53 PM 26.6 °F 21.2 °F 23.0 °F 86% 29.51 in 0.8 mi NNE 4.6 mph - 0.01 in   Overcast
4:13 PM 24.8 °F 19.1 °F 21.2 °F 86% 29.50 in 0.2 mi NE 4.6 mph - N/A   Overcast
4:34 PM 24.8 °F 17.9 °F 21.2 °F 86% 29.49 in 0.5 mi NNE 5.8 mph - 0.01 in   Overcast
4:53 PM 24.8 °F 16.1 °F 21.2 °F 86% 29.50 in 0.2 mi ENE 8.1 mph - 0.01 in   Overcast
5:13 PM 24.8 °F 19.1 °F 23.0 °F 93% 29.51 in 0.5 mi NE 4.6 mph - N/A   Overcast
5:33 PM 24.8 °F 17.9 °F 23.0 °F 93% 29.50 in 1.0 mi NE 5.8 mph - N/A   Overcast
5:53 PM 24.8 °F 19.1 °F 23.0 °F 93% 29.50 in 1.2 mi NE 4.6 mph - 0.01 in   Overcast
6:13 PM 26.6 °F 21.2 °F 23.0 °F 86% 29.50 in 1.2 mi NE 4.6 mph - 0.01 in   Overcast
6:33 PM 24.8 °F 19.1 °F 23.0 °F 93% 29.49 in 0.8 mi NNE 4.6 mph - 0.02 in   Overcast
6:53 PM 24.8 °F 19.1 °F 23.0 °F 93% 29.49 in 0.5 mi NE 4.6 mph - 0.02 in Snow Heavy Snow
7:13 PM 24.8 °F - 23.0 °F 93% 29.49 in 0.5 mi Calm Calm - 0.01 in Snow Snow
7:33 PM 24.8 °F 20.5 °F 23.0 °F 93% 29.48 in 0.8 mi NNE 3.5 mph - 0.03 in   Overcast
7:53 PM 24.8 °F - 21.2 °F 86% 29.48 in 1.2 mi Calm Calm - 0.05 in   Overcast
8:13 PM 24.8 °F 19.1 °F 21.2 °F 86% 29.47 in 1.8 mi NNE 4.6 mph - 0.02 in   Overcast
8:33 PM 24.8 °F 20.5 °F 21.2 °F 86% 29.46 in 1.8 mi NNE 3.5 mph - 0.04 in   Overcast
8:53 PM 24.8 °F 20.5 °F 21.2 °F 86% 29.46 in 2.0 mi North 3.5 mph - 0.05 in   Overcast
9:14 PM 24.8 °F 20.5 °F 21.2 °F 86% 29.45 in 4.0 mi NNE 3.5 mph - 0.01 in   Overcast
9:33 PM 24.8 °F 20.5 °F 21.2 °F 86% 29.44 in 2.5 mi North 3.5 mph - 0.02 in   Overcast
9:53 PM 24.8 °F - 21.2 °F 86% 29.44 in 2.5 mi Calm Calm - 0.03 in   Overcast
10:13 PM 24.8 °F - 21.2 °F 86% 29.44 in 4.0 mi Calm Calm - N/A Snow Light Snow
10:33 PM 24.8 °F 20.5 °F 21.2 °F 86% 29.44 in 2.0 mi North 3.5 mph - 0.02 in Snow Light Snow
10:53 PM 24.8 °F 20.5 °F 21.2 °F 86% 29.44 in 2.0 mi NNE 3.5 mph - 0.02 in   Overcast
11:13 PM 24.8 °F 19.1 °F 21.2 °F 86% 29.43 in 1.5 mi North 4.6 mph - 0.01 in   Overcast
11:37 PM 24.8 °F 20.5 °F 21.2 °F 86% 29.43 in 1.0 mi NNW 3.5 mph - 0.01 in Snow Heavy Snow
11:53 PM 24.8 °F - 21.2 °F 86% 29.44 in 1.0 mi Calm Calm - 0.02 in Snow Snow